TimeMST,TemperatureF,Dew PointF,Humidity,Sea Level PressureIn,VisibilityMPH,Wind Direction,Wind SpeedMPH,Gust SpeedMPH,PrecipitationIn,Events,Conditions,WindDirDegrees,DateUTC
12:53 AM,33.1,19.9,59,29.92,10.0,NW,5.8,-,N/A,,Clear,320,2012-01-30 07:53:00
1:53 AM,34.0,21.0,59,29.88,10.0,West,8.1,-,N/A,,Clear,280,2012-01-30 08:53:00
2:53 AM,33.1,19.9,59,29.85,10.0,WSW,6.9,-,N/A,,Clear,240,2012-01-30 09:53:00
3:53 AM,32.0,19.9,61,29.82,10.0,Calm,Calm,-,N/A,,Clear,0,2012-01-30 10:53:00
4:53 AM,32.0,19.0,59,29.81,10.0,SW,9.2,-,N/A,,Clear,230,2012-01-30 11:53:00
5:53 AM,33.1,19.0,56,29.79,10.0,Calm,Calm,-,N/A,,Clear,0,2012-01-30 12:53:00
6:53 AM,30.9,19.0,61,29.81,10.0,NNW,5.8,-,N/A,,Clear,340,2012-01-30 13:53:00
7:53 AM,34.0,17.1,50,29.80,10.0,NE,4.6,-,N/A,,Clear,50,2012-01-30 14:53:00
8:53 AM,30.0,19.9,66,29.82,10.0,NNW,11.5,17.3,N/A,,Overcast,340,2012-01-30 15:53:00
9:53 AM,35.1,21.0,57,29.79,10.0,Variable,3.5,-,N/A,,Mostly Cloudy,0,2012-01-30 16:53:00
10:53 AM,44.1,19.0,37,29.76,10.0,NE,5.8,-,N/A,,Scattered Clouds,50,2012-01-30 17:53:00
11:53 AM,45.0,23.0,42,29.78,10.0,NNE,4.6,-,N/A,,Clear,20,2012-01-30 18:53:00
12:53 PM,46.9,17.1,30,29.76,10.0,West,19.6,31.1,N/A,,Clear,280,2012-01-30 19:53:00
1:53 PM,46.9,18.0,32,29.76,10.0,West,12.7,23.0,N/A,,Clear,280,2012-01-30 20:53:00
2:53 PM,44.1,17.1,34,29.76,10.0,West,21.9,36.8,N/A,,Clear,260,2012-01-30 21:53:00
3:53 PM,41.0,19.0,41,29.82,10.0,West,11.5,23.0,N/A,,Clear,260,2012-01-30 22:53:00
4:53 PM,37.9,17.1,43,29.86,10.0,WNW,13.8,18.4,N/A,,Clear,290,2012-01-30 23:53:00
5:53 PM,36.0,17.1,46,29.89,10.0,West,11.5,-,N/A,,Clear,260,2012-01-31 00:53:00
6:53 PM,37.0,12.0,36,29.88,10.0,NNW,16.1,26.5,N/A,,Clear,330,2012-01-31 01:53:00
7:53 PM,36.0,10.9,36,29.87,10.0,NNW,11.5,-,N/A,,Clear,340,2012-01-31 02:53:00
8:53 PM,35.1,10.0,35,29.90,10.0,WNW,6.9,-,N/A,,Clear,290,2012-01-31 03:53:00
9:53 PM,36.0,9.0,33,29.91,10.0,Calm,Calm,-,N/A,,Clear,0,2012-01-31 04:53:00
10:53 PM,32.0,10.0,40,29.92,10.0,Calm,Calm,-,N/A,,Clear,0,2012-01-31 05:53:00
11:53 PM,30.0,9.0,41,29.92,10.0,ESE,3.5,-,N/A,,Clear,110,2012-01-31 06:53:00